EW5684 Weather Reports


Display with metric or nautical units.
time (UTC)temp
F
wind
direction
speed
MPH
gust
MPH
rain 1hr
in
rain 24hr
in
rain mn
in
humidity
%
barometer
mb
20201030191255 56 341 0.0 0.0 0.00 0.00 0.00 62 1025.2
20201030190758 56 343 0.0 1.0 0.00 0.00 0.00 62 1025.1
20201030190307 56 343 0.0 2.0 0.00 0.00 0.00 62 1025.1
20201030185754 56 343 0.0 3.0 0.00 0.00 0.00 62 1025.0
20201030185256 56 343 1.0 3.0 0.00 0.00 0.00 61 1025.0
20201030184755 57 324 2.0 3.0 0.00 0.00 0.00 61 1025.1
20201030184302 57 324 2.0 3.0 0.00 0.00 0.00 62 1025.0
20201030183758 56 330 2.0 3.0 0.00 0.00 0.00 63 1025.1
20201030183254 56 300 2.0 3.0 0.00 0.00 0.00 63 1025.0
20201030182801 56 299 1.0 2.0 0.00 0.00 0.00 63 1025.0
20201030182301 56 299 1.0 3.0 0.00 0.00 0.00 63 1025.0
20201030181815 56 299 1.0 3.0 0.00 0.00 0.00 63 1024.9
20201030181254 56 299 1.0 3.0 0.00 0.00 0.00 63 1024.9
20201030180803 56 307 0.0 3.0 0.00 0.00 0.00 64 1024.9
20201030180253 56 302 1.0 3.0 0.00 0.00 0.00 65 1024.9
20201030175753 55 303 2.0 2.0 0.00 0.00 0.00 66 1024.8
20201030175253 55 305 2.0 2.0 0.00 0.00 0.00 65 1024.9
20201030174753 55 305 0.0 0.0 0.00 0.00 0.00 64 1024.9
20201030174254 56 305 0.0 0.0 0.00 0.00 0.00 64 1024.7
20201030173756 56 305 0.0 0.0 0.00 0.00 0.00 63 1024.8
20201030173254 56 305 0.0 0.0 0.00 0.00 0.00 62 1024.7
20201030172801 57 305 0.0 0.0 0.00 0.00 0.00 61 1024.6
20201030172255 58 305 0.0 0.0 0.00 0.00 0.00 62 1024.6
20201030171752 58 305 0.0 0.0 0.00 0.00 0.00 61 1024.5
20201030171253 58 303 0.0 0.0 0.00 0.00 0.00 60 1024.5
20201030170812 59 305 0.0 0.0 0.00 0.00 0.00 59 1024.5
20201030170253 60 305 0.0 0.0 0.00 0.00 0.00 58 1024.4
20201030165754 60 305 0.0 0.0 0.00 0.00 0.00 57 1024.4
20201030165251 60 305 0.0 0.0 0.00 0.00 0.00 57 1024.4
20201030164754 60 0 0.0 0.0 0.00 0.00 0.00 57 1024.3
20201030164252 59 235 0.0 0.0 0.00 0.00 0.00 58 1024.3
20201030163756 60 0 0.0 0.0 0.00 0.00 0.00 56 1024.3
20201030163251 61 0 0.0 0.0 0.00 0.00 0.00 56 1024.1
20201030162757 62 238 0.0 0.0 0.00 0.00 0.00 54 1024.1
20201030162252 62 0 0.0 0.0 0.00 0.00 0.00 53 1024.0
20201030161755 63 238 0.0 0.0 0.00 0.00 0.00 52 1024.1
20201030161250 64 238 0.0 0.0 0.00 0.00 0.00 51 1024.0
20201030160751 64 238 0.0 0.0 0.00 0.00 0.00 50 1024.0
20201030160253 64 238 0.0 0.0 0.00 0.00 0.00 50 1023.9
20201030155752 64 238 0.0 0.0 0.00 0.00 0.00 50 1023.8
20201030155252 65 238 0.0 0.0 0.00 0.00 0.00 49 1023.9
20201030154749 65 238 0.0 0.0 0.00 0.00 0.00 48 1023.9
20201030154304 65 238 0.0 0.0 0.00 0.00 0.00 49 1023.9
20201030153754 65 238 0.0 0.0 0.00 0.00 0.00 48 1023.8
20201030153249 65 238 0.0 0.0 0.00 0.00 0.00 47 1023.9
20201030152751 65 238 0.0 0.0 0.00 0.00 0.00 47 1023.9
20201030152254 65 238 0.0 0.0 0.00 0.00 0.00 47 1023.9
20201030151750 66 238 0.0 0.0 0.00 0.00 0.00 47 1023.8
20201030151257 66 238 0.0 1.0 0.00 0.00 0.00 48 1023.9
20201030150756 66 238 0.0 1.0 0.00 0.00 0.00 48 1023.9
20201030150254 65 238 0.0 2.0 0.00 0.00 0.00 48 1023.9
20201030145754 65 235 0.0 2.0 0.00 0.00 0.00 48 1023.9
20201030145251 65 235 0.0 2.0 0.00 0.00 0.00 48 1023.9
20201030144754 66 235 0.0 3.0 0.00 0.00 0.00 48 1023.9
20201030144249 65 235 1.0 3.0 0.00 0.00 0.00 50 1023.9
20201030143748 65 234 1.0 2.0 0.00 0.00 0.00 49 1023.9
20201030143257 65 234 0.0 2.0 0.00 0.00 0.00 49 1023.9
20201030142759 65 234 1.0 2.0 0.00 0.00 0.00 48 1024.0
20201030142250 65 227 1.0 3.0 0.00 0.00 0.00 48 1023.9
20201030141749 66 245 1.0 3.0 0.00 0.00 0.00 48 1023.9
20201030141256 65 247 2.0 3.0 0.00 0.00 0.00 48 1023.9
20201030140745 65 213 1.0 4.0 0.00 0.00 0.00 49 1024.0
20201030140249 65 210 2.0 4.0 0.00 0.00 0.00 48 1023.9
20201030135750 66 245 2.0 4.0 0.00 0.00 0.00 48 1023.9
20201030135249 66 203 2.0 3.0 0.00 0.00 0.00 47 1023.9
20201030134747 65 172 1.0 4.0 0.00 0.00 0.00 47 1024.0
20201030134247 65 202 1.0 4.0 0.00 0.00 0.00 47 1023.9
20201030133747 65 188 0.0 4.0 0.00 0.00 0.00 48 1023.9
20201030133247 65 188 2.0 4.0 0.00 0.00 0.00 47 1023.9
20201030132747 65 220 0.0 3.0 0.00 0.00 0.00 47 1023.9
20201030132250 65 178 1.0 3.0 0.00 0.00 0.00 48 1024.0
20201030131748 65 202 2.0 3.0 0.00 0.00 0.00 47 1024.0
20201030131247 65 178 2.0 3.0 0.00 0.00 0.00 49 1024.0
20201030130816 64 161 0.0 3.0 0.00 0.00 0.00 50 1024.0
20201030130256 64 190 2.0 3.0 0.00 0.00 0.00 50 1024.0
20201030125749 65 161 0.0 4.0 0.00 0.00 0.00 47 1024.0
20201030125250 65 155 1.0 4.0 0.00 0.00 0.00 50 1024.0
20201030124746 64 148 1.0 3.0 0.00 0.00 0.00 50 1024.0
20201030124253 64 200 1.0 3.0 0.00 0.00 0.00 53 1024.1
20201030123805 64 228 2.0 3.0 0.00 0.00 0.00 52 1024.1
20201030123247 63 193 1.0 4.0 0.00 0.00 0.00 53 1024.2
20201030122751 62 159 2.0 5.0 0.00 0.00 0.00 55 1024.2
20201030122245 62 190 2.0 5.0 0.00 0.00 0.00 56 1024.1
20201030121749 62 0 0.0 5.0 0.00 0.00 0.00 55 1024.2
20201030121245 62 207 3.0 5.0 0.00 0.00 0.00 55 1024.2
20201030120745 61 196 0.0 5.0 0.00 0.00 0.00 56 1024.4
20201030120247 61 212 2.0 5.0 0.00 0.00 0.00 55 1024.3
20201030115752 62 206 2.0 4.0 0.00 0.00 0.00 55 1024.4
20201030115245 63 234 2.0 4.0 0.00 0.00 0.00 55 1024.4
20201030114755 62 210 1.0 5.0 0.00 0.00 0.00 57 1024.4
20201030114248 62 202 0.0 5.0 0.00 0.00 0.00 56 1024.4
20201030113748 62 197 2.0 4.0 0.00 0.00 0.00 56 1024.5
20201030113245 61 190 0.0 3.0 0.00 0.00 0.00 56 1024.6
20201030112744 61 193 2.0 4.0 0.00 0.00 0.00 56 1024.6
20201030112246 60 240 2.0 5.0 0.00 0.00 0.00 56 1024.8
20201030111744 60 234 2.0 5.0 0.00 0.00 0.00 57 1024.7
20201030111257 60 0 2.0 4.0 0.00 0.00 0.00 57 1024.8
20201030110749 60 0 2.0 5.0 0.00 0.00 0.00 58 1024.8
20201030110245 59 173 1.0 5.0 0.00 0.00 0.00 59 1024.9
20201030105745 59 243 4.0 5.0 0.00 0.00 0.00 60 1024.8
20201030105247 59 207 2.0 4.0 0.00 0.00 0.00 60 1024.9
20201030104749 59 199 2.0 4.0 0.00 0.00 0.00 60 1025.0
20201030104248 59 0 2.0 3.0 0.00 0.00 0.00 61 1025.0
20201030103748 58 0 2.0 5.0 0.00 0.00 0.00 62 1025.1
20201030103242 58 0 2.0 5.0 0.00 0.00 0.00 61 1025.2
20201030102744 58 175 2.0 4.0 0.00 0.00 0.00 60 1025.2
20201030102242 57 0 2.0 4.0 0.00 0.00 0.00 61 1025.2
20201030101742 58 0 2.0 3.0 0.00 0.00 0.00 62 1025.2
20201030101243 57 190 0.0 3.0 0.00 0.00 0.00 61 1025.2
20201030100743 57 192 1.0 3.0 0.00 0.00 0.00 62 1025.3
20201030100243 56 164 0.0 2.0 0.00 0.00 0.00 64 1025.3
20201030095742 56 162 0.0 2.0 0.00 0.00 0.00 63 1025.2
20201030095242 56 158 0.0 2.0 0.00 0.00 0.00 63 1025.3
20201030094742 55 140 0.0 0.0 0.00 0.00 0.00 63 1025.3
20201030094242 56 140 0.0 0.0 0.00 0.00 0.00 64 1025.2
20201030093743 55 140 0.0 0.0 0.00 0.00 0.00 65 1025.2
20201030093242 54 140 0.0 0.0 0.00 0.00 0.00 65 1025.2
20201030092801 53 140 0.0 0.0 0.00 0.00 0.00 65 1025.2
20201030092244 53 140 0.0 2.0 0.00 0.00 0.00 65 1025.2
20201030091742 53 140 0.0 2.0 0.00 0.00 0.00 64 1025.3
20201030091249 54 0 0.0 0.0 0.00 0.00 0.00 66 1025.3
20201030090741 53 0 0.0 2.0 0.00 0.00 0.00 66 1025.3
20201030090244 53 133 0.0 2.0 0.00 0.00 0.00 67 1025.2
20201030085745 52 131 0.0 2.0 0.00 0.00 0.00 68 1025.2
20201030085241 52 0 0.0 2.0 0.00 0.00 0.00 68 1025.1
20201030084741 52 131 0.0 0.0 0.00 0.00 0.00 68 1025.1
20201030084243 51 0 0.0 0.0 0.00 0.00 0.00 68 1025.1
20201030083741 52 131 0.0 0.0 0.00 0.00 0.00 69 1025.1
20201030083240 50 0 0.0 1.0 0.00 0.00 0.00 69 1025.0
20201030082741 49 0 0.0 1.0 0.00 0.00 0.00 71 1025.1
20201030082240 49 0 0.0 0.0 0.00 0.00 0.00 71 1025.3
20201030081745 49 0 0.0 2.0 0.00 0.00 0.00 72 1025.2
20201030081241 48 0 1.0 2.0 0.00 0.00 0.00 72 1025.2
20201030080745 48 0 0.0 1.0 0.00 0.00 0.00 74 1025.2
20201030080239 48 0 0.0 1.0 0.00 0.00 0.00 76 1025.1
20201030075740 47 0 0.0 0.0 0.00 0.00 0.00 77 1025.1
20201030075243 46 0 0.0 2.0 0.00 0.00 0.00 77 1025.1
20201030074740 45 131 0.0 3.0 0.00 0.00 0.00 77 1025.1
20201030074243 45 133 2.0 3.0 0.00 0.00 0.00 77 1025.1
20201030073739 45 133 1.0 3.0 0.00 0.00 0.00 77 1025.0
20201030073239 45 134 1.0 3.0 0.00 0.00 0.00 77 1025.1
20201030072749 45 0 0.0 0.0 0.00 0.00 0.00 78 1025.1
20201030072241 45 140 0.0 0.0 0.00 0.00 0.00 78 1025.0
20201030071739 44 0 0.0 0.0 0.00 0.00 0.00 78 1025.0
20201030071248 44 0 0.0 1.0 0.00 0.00 0.00 78 1024.8
20201030070744 43 140 0.0 3.0 0.00 0.00 0.00 78 1024.9
20201030070243 43 140 0.0 3.0 0.00 0.00 0.00 78 1024.8
20201030065749 44 140 2.0 4.0 0.00 0.00 0.00 78 1024.8
20201030065238 44 135 3.0 4.0 0.00 0.00 0.00 78 1024.7
20201030064739 43 144 0.0 1.0 0.00 0.00 0.00 78 1024.6
20201030064239 43 144 0.0 1.0 0.00 0.00 0.00 78 1024.6
20201030063738 43 142 0.0 2.0 0.00 0.00 0.00 78 1024.7
20201030063237 43 142 2.0 2.0 0.00 0.00 0.00 78 1024.6
20201030062742 44 32 0.0 0.0 0.00 0.00 0.00 78 1024.5
20201030062237 42 32 0.0 0.0 0.00 0.00 0.00 78 1024.4
20201030061738 42 42 0.0 0.0 0.00 0.00 0.00 77 1024.5
20201030061244 43 48 0.0 0.0 0.00 0.00 0.00 78 1024.3
20201030060737 43 48 0.0 0.0 0.00 0.00 0.00 78 1024.2
20201030060237 43 48 0.0 0.0 0.00 0.00 0.00 78 1024.3
20201030055737 43 48 0.0 0.0 0.00 0.00 0.00 78 1024.3
20201030055238 43 14 0.0 0.0 0.00 0.00 0.00 78 1024.3
20201030054737 43 14 0.0 0.0 0.00 0.00 0.00 78 1024.4
20201030054238 43 14 0.0 0.0 0.00 0.00 0.00 77 1024.4
20201030053738 43 14 0.0 0.0 0.00 0.00 0.00 77 1024.4
20201030053243 44 14 0.0 0.0 0.00 0.00 0.00 78 1024.4
20201030052736 44 14 0.0 0.0 0.00 0.00 0.00 78 1024.4
20201030052241 44 14 0.0 2.0 0.00 0.00 0.00 78 1024.3
20201030051738 43 14 0.0 2.0 0.00 0.00 0.00 79 1024.4
20201030051302 43 14 1.0 1.0 0.00 0.00 0.00 77 1024.4
20201030050739 43 20 0.0 1.0 0.00 0.00 0.00 78 1024.5
20201030050237 44 20 0.0 2.0 0.00 0.00 0.00 78 1024.4
20201030045737 44 20 1.0 2.0 0.00 0.00 0.00 78 1024.5
20201030045247 43 20 1.0 2.0 0.00 0.00 0.00 77 1024.5
20201030044734 42 35 2.0 2.0 0.00 0.00 0.00 77 1024.5
20201030044239 43 35 0.0 0.0 0.00 0.00 0.00 77 1024.5
20201030043738 43 41 0.0 0.0 0.00 0.00 0.00 77 1024.6
20201030043240 43 41 0.0 0.0 0.00 0.00 0.00 77 1024.6
20201030042736 43 41 0.0 0.0 0.00 0.00 0.00 77 1024.5
20201030042245 43 41 0.0 0.0 0.00 0.00 0.00 77 1024.6
20201030041733 42 41 0.0 0.0 0.00 0.00 0.00 75 1024.5
20201030041244 42 41 0.0 0.0 0.00 0.00 0.00 76 1024.5
20201030040733 43 41 0.0 0.0 0.00 0.00 0.00 75 1024.6
20201030040233 43 41 0.0 0.0 0.00 0.00 0.00 75 1024.5
20201030035733 43 41 0.0 0.0 0.00 0.00 0.00 75 1024.4
20201030035232 43 41 0.0 0.0 0.00 0.00 0.00 74 1024.5
20201030034737 44 41 0.0 0.0 0.00 0.00 0.00 75 1024.3
20201030034232 44 41 0.0 0.0 0.00 0.00 0.00 74 1024.3
20201030033734 45 41 0.0 0.0 0.00 0.00 0.00 75 1024.2
20201030033240 45 41 0.0 0.0 0.00 0.00 0.00 75 1024.3
20201030032737 45 41 0.0 0.0 0.00 0.00 0.00 75 1024.1
20201030032234 45 41 0.0 0.0 0.00 0.00 0.00 76 1024.0
20201030031734 45 41 0.0 0.0 0.00 0.00 0.00 75 1023.8
20201030031233 46 41 0.0 0.0 0.00 0.00 0.00 75 1023.7
20201030030733 46 41 0.0 0.0 0.00 0.00 0.00 75 1023.8
20201030030237 46 41 0.0 0.0 0.00 0.00 0.00 76 1023.7
20201030025738 45 41 0.0 0.0 0.00 0.00 0.00 76 1023.7
20201030025237 45 41 0.0 0.0 0.00 0.00 0.00 75 1023.6
20201030024737 45 41 0.0 0.0 0.00 0.00 0.00 75 1023.6
20201030024236 45 41 0.0 0.0 0.00 0.00 0.00 74 1023.4
20201030023733 44 41 0.0 0.0 0.00 0.00 0.00 73 1023.5
20201030023241 46 41 0.0 0.0 0.00 0.00 0.00 74 1023.4
20201030022745 45 41 0.0 0.0 0.00 0.00 0.00 74 1023.5
20201030022232 46 41 0.0 0.0 0.00 0.00 0.00 74 1023.5
20201030021734 46 41 0.0 0.0 0.00 0.00 0.00 74 1023.5
20201030021234 45 41 0.0 0.0 0.00 0.00 0.00 73 1023.4
20201030020733 45 41 0.0 0.0 0.00 0.00 0.00 72 1023.4
20201030020236 46 41 0.0 0.0 0.00 0.00 0.00 74 1023.4
20201030015736 46 41 0.0 0.0 0.00 0.00 0.00 73 1023.5
20201030015231 46 41 0.0 0.0 0.00 0.00 0.00 73 1023.6
20201030014732 46 41 0.0 0.0 0.00 0.00 0.00 73 1023.5
20201030014240 46 41 0.0 0.0 0.00 0.00 0.00 73 1023.5
20201030013739 46 41 0.0 0.0 0.00 0.00 0.00 73 1023.6
20201030013234 46 41 0.0 0.0 0.00 0.00 0.00 73 1023.6
20201030012731 46 41 0.0 0.0 0.00 0.00 0.00 73 1023.7
20201030012238 46 41 0.0 3.0 0.00 0.00 0.00 72 1023.8
20201030011731 46 38 1.0 4.0 0.00 0.00 0.00 73 1023.6
20201030011233 46 23 4.0 4.0 0.00 0.00 0.00 73 1023.4
20201030010738 46 69 0.0 0.0 0.00 0.00 0.00 72 1023.4
20201030010233 46 69 0.0 2.0 0.00 0.00 0.00 72 1023.4
20201030005731 46 69 1.0 2.0 0.00 0.00 0.00 72 1023.4
20201030005230 46 69 0.0 2.0 0.00 0.00 0.00 72 1023.4
20201030004730 46 69 0.0 2.0 0.00 0.00 0.00 72 1023.3
20201030004232 46 69 1.0 1.0 0.00 0.00 0.00 72 1023.4
20201030003733 46 69 0.0 0.0 0.00 0.00 0.00 72 1023.3
20201030003235 46 69 0.0 0.0 0.00 0.00 0.00 72 1023.3
20201030002733 46 69 0.0 0.0 0.00 0.00 0.00 72 1023.3
20201030002231 46 69 0.0 3.0 0.00 0.00 0.00 72 1023.3
20201030001732 46 71 1.0 3.0 0.00 0.00 0.00 72 1023.4
20201030001229 47 8 0.0 1.0 0.00 0.00 0.00 72 1023.4
20201030000729 46 8 0.0 1.0 0.00 0.00 0.00 72 1023.4
20201030000235 46 8 0.0 0.0 0.00 0.00 0.00 72 1023.6
20201029235734 46 8 0.0 0.0 0.00 0.00 0.00 72 1023.4
20201029235229 46 8 0.0 0.0 0.00 0.00 0.00 71 1023.5
20201029234729 46 8 0.0 0.0 0.00 0.00 0.00 71 1023.5
20201029234234 45 8 0.0 0.0 0.00 0.00 0.00 70 1023.4
20201029233730 46 8 0.0 0.0 0.00 0.00 0.00 69 1023.4
20201029233237 46 8 0.0 0.0 0.00 0.00 0.00 69 1023.4
20201029232728 47 8 0.0 0.0 0.00 0.00 0.00 69 1023.3
20201029232229 47 8 0.0 0.0 0.00 0.00 0.00 69 1023.4
20201029231728 47 8 0.0 0.0 0.00 0.00 0.00 69 1023.5
20201029231228 47 8 0.0 0.0 0.00 0.00 0.00 69 1023.6
20201029230728 48 8 0.0 0.0 0.00 0.00 0.00 69 1023.6
20201029230231 48 8 0.0 0.0 0.00 0.00 0.00 68 1023.5
20201029225731 48 8 0.0 0.0 0.00 0.00 0.00 68 1023.4
20201029225232 49 8 0.0 0.0 0.00 0.00 0.00 68 1023.4
20201029224727 49 8 0.0 0.0 0.00 0.00 0.00 69 1023.3
20201029224229 48 8 0.0 0.0 0.00 0.00 0.00 69 1023.4
20201029223729 48 8 0.0 0.0 0.00 0.00 0.00 69 1023.5
20201029223240 48 8 0.0 0.0 0.00 0.00 0.00 69 1023.3
20201029222730 48 8 0.0 0.0 0.00 0.00 0.00 69 1023.1
20201029222232 48 8 0.0 1.0 0.00 0.00 0.00 69 1023.1
20201029221731 48 8 0.0 2.0 0.00 0.00 0.00 69 1023.3
20201029221227 48 8 0.0 2.0 0.00 0.00 0.00 68 1023.4
20201029220728 48 8 1.0 2.0 0.00 0.00 0.00 69 1023.5
20201029220240 48 8 2.0 2.0 0.00 0.00 0.00 68 1023.4
20201029215727 48 10 0.0 0.0 0.00 0.00 0.00 68 1023.3
20201029215228 48 10 0.0 0.0 0.00 0.00 0.00 68 1023.4
20201029214729 48 11 0.0 0.0 0.00 0.00 0.00 69 1023.4
20201029214227 48 13 0.0 0.0 0.00 0.00 0.00 69 1023.3
20201029213726 48 14 0.0 0.0 0.00 0.00 0.00 69 1023.4
20201029213229 49 14 0.0 0.0 0.00 0.00 0.00 69 1023.3
20201029212736 49 13 0.0 2.0 0.00 0.00 0.00 69 1023.3
20201029212225 48 0 1.0 2.0 0.00 0.00 0.00 69 1023.3
20201029211727 48 0 0.0 0.0 0.00 0.00 0.00 69 1023.3
20201029211226 48 0 0.0 0.0 0.00 0.00 0.00 69 1023.3
20201029210730 48 0 0.0 0.0 0.00 0.00 0.00 69 1023.3
20201029210320 48 0 0.0 0.0 0.00 0.00 0.00 68 1023.3
20201029205739 48 0 0.0 0.0 0.00 0.00 0.00 68 1023.3
20201029205230 48 0 0.0 0.0 0.00 0.00 0.00 67 1023.3
20201029204729 48 1 0.0 0.0 0.00 0.00 0.00 67 1023.4
20201029204246 49 1 0.0 0.0 0.00 0.00 0.00 66 1023.4
20201029203725 49 1 0.0 1.0 0.00 0.00 0.00 66 1023.4
20201029203228 50 6 0.0 2.0 0.00 0.00 0.00 66 1023.3
20201029202726 50 3 1.0 2.0 0.00 0.00 0.00 66 1023.4
20201029202225 50 358 0.0 1.0 0.00 0.00 0.00 66 1023.3
20201029201726 50 340 1.0 1.0 0.00 0.00 0.00 66 1023.0
20201029201235 50 340 0.0 0.0 0.00 0.00 0.00 65 1022.8
20201029200730 50 338 0.0 0.0 0.00 0.00 0.00 65 1022.6
20201029200234 50 338 0.0 0.0 0.00 0.00 0.00 64 1022.6
20201029195724 50 338 0.0 0.0 0.00 0.00 0.00 64 1022.7
20201029195225 50 340 0.0 1.0 0.00 0.00 0.00 63 1022.8
20201029194723 51 340 0.0 2.0 0.00 0.00 0.00 63 1022.7
20201029194227 52 340 1.0 2.0 0.00 0.00 0.00 62 1022.7
20201029193724 52 340 0.0 1.0 0.00 0.00 0.00 63 1022.8
20201029193226 52 338 0.0 3.0 0.00 0.00 0.00 63 1022.7
20201029192725 52 340 1.0 3.0 0.00 0.00 0.00 63 1022.7
20201029192225 52 340 0.0 0.0 0.00 0.00 0.00 63 1022.5
20201029191723 52 340 0.0 2.0 0.00 0.00 0.00 63 1022.5